[[{"header":{"parameterUnit":"m.s-1","parameterCategory":1,"la1":30.2991,"la2":30.254,"lo1":-89.0895,"lo2":-89.0444,"dy":0.0017,"dx":0.0017,"nx":28,"ny":28,"refTime":"2025-05-21T03:00:00:Z","depth":0,"parameterNumber":2,"parameterNumberName":"U-component_of_WINDS"},"data":[0,0,0,0,0,0,0,0,0,0,0,0,0,0,0,0,0,0,0,0,0,0,0,0,0,0,0,0,0,0,0,0,0,0,0,0,0,0,0,0,0,0,0,0,0,0,0,0,0,0,0,0,0,0,0,0,0,0,2.9321,2.9321,0,2.9382,2.9383,2.9384,2.9331,2.9329,2.9327,2.9325,2.9388,2.9391,2.9395,0,0,0,0,0,0,0,0,0,0,0,0,0,2.9155,2.9159,2.932,2.9321,2.9322,2.9382,2.9383,2.9384,2.9332,2.9329,2.9326,2.9324,2.9387,2.9391,2.9395,0,0,0,0,0,0,0,0,0,0,0,0,0,2.9223,2.916,2.932,2.9303,2.9302,2.9382,2.9383,2.9384,2.9332,2.9329,2.9326,2.9323,2.9385,2.939,2.9396,2.9496,0,0,2.9413,2.9415,0,0,0,0,0,0,0,0,2.9219,2.9229,2.9305,2.9305,2.9304,2.9346,2.9348,2.9422,2.9333,2.9321,2.9325,2.9321,2.9376,2.9382,2.9401,2.9499,2.9501,2.9413,2.9417,2.9419,2.9421,0,0,0,0,0,0,0,2.9215,2.9226,2.9345,2.9306,2.9305,2.9292,2.9298,2.9362,2.9366,2.9322,2.9318,2.9326,2.9375,2.9396,2.9402,2.9502,2.9413,2.9418,2.9422,2.9424,2.9682,2.9685,0,0,0,0,0,0,2.9212,2.9223,2.9343,2.9347,2.9253,2.9297,2.9304,2.9336,2.9365,2.9367,2.9329,2.9323,2.9388,2.9396,2.9404,2.9521,2.9419,2.9424,2.9428,2.9679,2.9683,2.9687,0,0,0,0,0,0,2.9209,2.9223,2.934,2.9284,2.9298,2.9304,2.9339,2.9338,2.9359,2.9371,2.9371,2.9349,2.9386,2.9396,2.9473,2.9523,2.9427,2.9432,2.9674,2.968,2.9685,2.9757,0,0,0,0,0,0,2.9204,2.9222,2.9261,2.9285,2.9301,2.9409,2.9343,2.9342,2.9369,2.9362,2.939,2.9391,2.9384,2.9465,2.9478,2.9529,2.9436,2.967,2.9677,2.9683,2.975,2.9764,2.9776,0,0,0,0,0,2.9198,2.9279,2.9263,2.9278,2.9349,2.9412,2.9421,2.9411,2.9373,2.9411,2.9418,2.939,2.9515,2.9473,2.9488,2.9541,2.9667,2.9675,2.9683,2.9745,2.9762,2.9776,0,0,0,0,0,0,2.9261,2.9282,2.9264,2.9355,2.9382,2.9403,2.9451,2.943,2.9467,2.946,2.9446,2.9452,2.9532,2.9544,2.9497,2.9638,2.9585,2.9596,2.9627,2.9643,2.9656,2.9651,2.9441,0,0,0,0,0,2.9285,2.9335,2.935,2.9429,2.9443,2.9445,2.9472,2.9462,2.9489,2.95,2.9513,2.954,2.9584,2.9615,2.9657,2.9752,2.9756,2.9795,2.9808,2.9819,2.9829,2.9878,2.9895,2.9713,2.9713,2.9712,0,0,2.9336,2.9353,2.9386,2.9442,2.9461,2.9512,2.9455,2.9511,2.9548,2.9508,2.9581,2.9591,2.962,2.9706,2.9744,2.9718,2.988,2.9829,2.9837,2.9841,2.9888,2.9905,2.992,2.9718,2.9717,2.9716,0,0,2.9454,2.9473,2.954,2.956,2.959,2.9591,2.9607,2.963,2.9636,2.9708,2.9679,2.9722,2.9801,2.9822,2.9843,2.9968,2.9943,2.9982,3.0049,3.0097,3.0112,3.0124,3.0167,3.0183,2.9992,2.9992,2.9992,0,2.9513,2.9588,2.9577,2.9635,2.966,2.9626,2.9692,2.9713,2.9755,2.9773,2.9743,2.984,2.9857,2.9946,2.9976,2.9995,3.0012,2.9979,3.0111,3.0123,3.0135,3.0175,3.0192,2.9996,2.9996,2.9995,2.9995,0,2.9659,2.9712,2.9762,2.9803,2.9834,2.9896,2.9893,2.9925,2.9913,2.9916,2.9989,3.0008,3.0053,3.0074,3.0062,3.0161,3.0143,3.0113,3.0059,3.0157,3.0195,3.021,3.0003,3.0001,3.0,2.9999,0,0,2.9818,2.9851,2.987,2.9887,2.9917,2.9958,3.0018,3.0061,3.0089,3.0119,3.0168,3.0235,3.0206,3.023,3.022,3.0262,3.0357,3.0226,3.0226,3.0248,3.0465,3.0487,3.0506,3.0341,3.0344,3.0347,3.0462,0,2.9935,3.004,3.0031,3.013,3.0178,3.0145,3.0198,3.0221,3.0226,3.0266,3.0271,3.0317,3.0277,3.0291,3.0331,3.0337,3.0401,3.0329,3.0386,3.0388,3.0378,3.0526,3.055,3.0658,3.0477,3.048,3.0482,0,3.0087,3.0122,3.0226,3.0247,3.0267,3.0314,3.0352,3.0392,3.0418,3.0418,3.0444,3.0427,3.0486,3.0432,3.0512,3.0464,3.0486,3.0493,3.0497,3.0501,3.044,3.0532,3.0693,3.0708,3.0505,3.0503,3.0502,0,3.019,3.0264,3.0335,3.0351,3.0379,3.0412,3.0425,3.0447,3.0474,3.0507,3.0524,3.0564,3.0586,3.0616,3.061,3.0571,3.0691,3.0637,3.0692,3.0692,3.0718,3.0716,3.0883,3.0735,3.0735,3.0734,3.0734,0,3.0322,3.0387,3.0381,3.0425,3.0496,3.0484,3.0554,3.0563,3.0583,3.0626,3.0601,3.0643,3.0632,3.0673,3.0668,3.0735,3.0745,3.0746,3.0743,3.0747,3.0747,3.0761,3.0753,3.0739,3.0738,3.0737,3.0736,0,3.0449,3.0449,3.0524,3.0543,3.055,3.0601,3.0617,3.0657,3.0659,3.0715,3.0728,3.0731,3.0777,3.0774,3.0827,3.0823,3.0905,3.0894,3.0896,3.0893,3.0948,3.0942,3.1128,3.1151,3.099,3.0991,3.0993,0,3.0533,3.0581,3.0606,3.0634,3.0649,3.0694,3.072,3.0711,3.0739,3.0771,3.0807,3.0852,3.0887,3.0962,3.0969,3.1009,3.0998,3.106,3.1004,3.1005,3.0997,3.0994,3.0997,3.1071,3.1073,3.1074,3.1076,0,3.0681,3.0678,3.0717,3.0756,3.0789,3.0819,3.0847,3.0871,3.0863,3.0896,3.0944,3.0971,3.1024,3.1068,3.1105,3.1117,3.1095,3.1094,3.1108,3.1112,3.111,3.111,3.0925,3.1089,3.1088,3.1087,3.1086,3.1085,3.0787,3.0828,3.0852,3.0896,3.0916,3.0942,3.098,3.0987,3.1027,3.1069,3.1061,3.1114,3.1136,3.1185,3.12,3.1241,3.1218,3.124,3.1245,3.125,3.1255,3.1105,3.1248,3.1247,3.1247,3.1247,3.1246,0,3.0932,3.0945,3.0987,3.1026,3.106,3.1037,3.1066,3.1096,3.1143,3.1166,3.1201,3.1254,3.1296,3.1306,3.1346,3.1376,3.1367,3.1387,3.1384,3.1386,3.1274,3.1257,3.1394,3.1394,3.1394,3.1394,3.1393,3.1393,3.1011,3.1079,3.1079,3.1155,3.1168,3.122,3.1238,3.1262,3.128,3.1341,3.1376,3.1382,3.1399,3.144,3.1477,3.1478,3.1494,3.1518,3.1515,3.1409,3.1395,3.1381,3.1364,3.1521,3.1521,3.1624,3.1625,3.1625]},{"header":{"parameterUnit":"m.s-1","parameterCategory":1,"la1":30.2991,"la2":30.254,"lo1":-89.0895,"lo2":-89.0444,"dy":0.0017,"dx":0.0017,"nx":28,"ny":28,"refTime":"2025-05-21T03:00:00:Z","depth":0,"parameterNumber":3,"parameterNumberName":"V-component_of_WINDS"},"data":[0,0,0,0,0,0,0,0,0,0,0,0,0,0,0,0,0,0,0,0,0,0,0,0,0,0,0,0,0,0,0,0,0,0,0,0,0,0,0,0,0,0,0,0,0,0,0,0,0,0,0,0,0,0,0,0,0,0,5.9602,5.9603,0,5.9747,5.9749,5.9751,5.9736,5.9734,5.9732,5.973,5.9872,5.9878,5.9883,0,0,0,0,0,0,0,0,0,0,0,0,0,5.9303,5.9308,5.9601,5.9603,5.9605,5.9747,5.9749,5.9751,5.9737,5.9734,5.9731,5.9729,5.987,5.9877,5.9884,0,0,0,0,0,0,0,0,0,0,0,0,0,5.9439,5.931,5.9601,5.9615,5.9618,5.9747,5.9749,5.9752,5.9737,5.9734,5.9731,5.9728,5.9868,5.9876,5.9885,6.0006,0,0,5.9912,5.9916,0,0,0,0,0,0,0,0,5.9431,5.945,5.9611,5.9615,5.9618,5.972,5.9696,5.9837,5.9738,5.9692,5.973,5.9726,5.9824,5.9836,5.987,6.0013,6.0019,5.9913,5.9918,5.9922,5.9924,0,0,0,0,0,0,0,5.9422,5.9443,5.9659,5.9614,5.9618,5.9612,5.9627,5.9722,5.9775,5.9696,5.9695,5.9713,5.9825,5.9862,5.9874,6.0021,5.9912,5.992,5.9926,5.9929,6.0269,6.0273,0,0,0,0,0,0,5.941,5.9435,5.9654,5.9663,5.9514,5.962,5.9637,5.9691,5.9774,5.9783,5.9716,5.9712,5.9849,5.9863,5.9879,6.0026,5.9922,5.993,5.9935,6.0266,6.027,6.0274,0,0,0,0,0,0,5.9403,5.9429,5.9648,5.9549,5.9577,5.9629,5.9689,5.9695,5.9733,5.9789,5.9797,5.9745,5.9846,5.9866,5.9975,6.0031,5.9934,5.9942,6.0261,6.0267,6.0272,6.0322,0,0,0,0,0,0,5.9395,5.9427,5.9476,5.9551,5.9582,5.9745,5.9692,5.9701,5.9749,5.9745,5.9818,5.9827,5.9845,5.9962,5.9984,6.0041,5.9949,6.0256,6.0264,6.027,6.0316,6.0329,6.034,0,0,0,0,0,5.9384,5.9483,5.9479,5.9505,5.9645,5.9748,5.9766,5.9787,5.9753,5.9802,5.9837,5.9825,6.0021,5.9973,5.9998,6.0058,6.0253,6.0262,6.027,6.031,6.0326,6.034,0,0,0,0,0,0,5.9411,5.9493,5.9489,5.9615,5.9675,5.9746,5.9807,5.9804,5.9873,5.9866,5.9887,5.9903,6.0013,6.0046,5.9992,6.018,6.0132,6.0146,6.0154,6.017,6.0182,6.0171,5.9956,0,0,0,0,0,5.9432,5.9512,5.9578,5.9683,5.9713,5.9755,5.9801,5.9813,5.9874,5.9899,5.9943,6.0001,6.0076,6.0124,6.0196,6.032,6.0335,6.0374,6.0386,6.0395,6.0407,6.0474,6.0491,6.0302,6.0302,6.0302,0,0,5.9475,5.953,5.9579,5.969,5.9737,5.9817,5.9777,5.9863,5.9922,5.9911,6.0018,6.0051,6.0118,6.0234,6.0288,6.0265,6.0462,6.0406,6.0413,6.042,6.0484,6.0502,6.0518,6.0308,6.0307,6.0306,0,0,5.9595,5.9645,5.9738,5.9787,5.9861,5.9888,5.991,5.9982,6.0004,6.0112,6.0105,6.0174,6.0303,6.035,6.0391,6.0528,6.0518,6.055,6.0614,6.0678,6.0693,6.0706,6.0755,6.0772,6.0562,6.0562,6.0562,0,5.9639,5.9762,5.9785,5.9873,5.9921,5.9918,6.001,6.0056,6.0148,6.018,6.0154,6.0315,6.0359,6.0487,6.052,6.0554,6.0578,6.0542,6.069,6.0703,6.0716,6.0762,6.078,6.0565,6.0565,6.0564,6.0564,0,5.9812,5.9897,5.9963,6.0055,6.011,6.0199,6.0234,6.0286,6.0292,6.0321,6.0429,6.0482,6.0565,6.0595,6.0601,6.0723,6.0707,6.0685,6.0638,6.0737,6.0781,6.0799,6.057,6.0569,6.0568,6.0567,0,0,5.9954,6.0058,6.0081,6.0123,6.0203,6.0268,6.0356,6.0439,6.0483,6.0546,6.062,6.0728,6.0709,6.0755,6.0766,6.0823,6.0927,6.0794,6.0795,6.0816,6.1063,6.1079,6.11,6.0921,6.0924,6.0927,6.1058,0,6.0082,6.0242,6.0264,6.0404,6.0482,6.0479,6.0555,6.0611,6.064,6.0708,6.0739,6.0816,6.0784,6.0812,6.0868,6.0902,6.0977,6.0893,6.0987,6.099,6.0971,6.1123,6.114,6.1261,6.1075,6.1078,6.108,0,6.0253,6.0323,6.0472,6.0541,6.0575,6.0644,6.0721,6.0787,6.0849,6.0866,6.0918,6.0922,6.101,6.0959,6.108,6.1023,6.1062,6.1084,6.1089,6.1099,6.1041,6.1136,6.13,6.1318,6.1107,6.1105,6.1103,0,6.0341,6.0472,6.0578,6.0614,6.0698,6.0746,6.0782,6.0842,6.089,6.0956,6.0987,6.1062,6.1103,6.116,6.1182,6.1143,6.1302,6.1253,6.1316,6.1316,6.135,6.1348,6.1523,6.1376,6.1375,6.1375,6.1375,0,6.0481,6.0572,6.0619,6.0684,6.0785,6.0809,6.0907,6.0941,6.0994,6.1063,6.1064,6.1129,6.1155,6.1223,6.1241,6.1338,6.1356,6.137,6.1374,6.1371,6.1369,6.1397,6.1389,6.138,6.1379,6.1378,6.1377,0,6.0597,6.0632,6.0747,6.0818,6.0837,6.0909,6.0967,6.1029,6.1057,6.1145,6.1167,6.121,6.129,6.1319,6.1415,6.1427,6.1539,6.1536,6.1519,6.152,6.1582,6.1576,6.1782,6.1809,6.1644,6.1645,6.1647,0,6.0685,6.0755,6.0833,6.0881,6.0921,6.0997,6.1047,6.1072,6.1123,6.12,6.1251,6.1332,6.1397,6.1525,6.1563,6.1636,6.1634,6.1701,6.1645,6.164,6.1635,6.1631,6.1638,6.1712,6.1714,6.1715,6.1716,0,6.0836,6.085,6.0923,6.1003,6.1063,6.1125,6.1186,6.1224,6.1258,6.1315,6.1398,6.1449,6.1549,6.1628,6.1703,6.1737,6.1732,6.1733,6.1752,6.1749,6.1737,6.1744,6.1548,6.1729,6.1727,6.1726,6.1726,6.1725,6.094,6.1002,6.1068,6.1149,6.1197,6.1254,6.1316,6.1352,6.1423,6.1508,6.1517,6.1606,6.1665,6.1766,6.1804,6.1872,6.1853,6.188,6.1887,6.1894,6.1898,6.1726,6.1886,6.1885,6.1885,6.1885,6.1884,0,6.1092,6.1134,6.1208,6.1294,6.1358,6.1349,6.1416,6.1468,6.1548,6.1605,6.167,6.1764,6.1841,6.1885,6.1961,6.2007,6.2006,6.2026,6.2023,6.2031,6.1911,6.1887,6.2025,6.2025,6.2025,6.2025,6.2025,6.2025,6.1178,6.1283,6.1304,6.1432,6.1472,6.1562,6.1601,6.1652,6.1698,6.1805,6.1869,6.1898,6.1949,6.2029,6.2098,6.2108,6.2136,6.2158,6.2166,6.2054,6.2039,6.2025,6.2003,6.2164,6.2164,6.2281,6.2282,6.2283]}]]